Time,TemperatureF,DewpointF,PressureIn,WindDirection,WindDirectionDegrees,WindSpeedMPH,WindSpeedGustMPH,Humidity,HourlyPrecipIn,Conditions,Clouds,dailyrainin,SoftwareType,DateUTC
2013-02-05 00:03:00,47.2,43.2,29.98,SSE,148,0.0,2.0,86,0.00,,,0.00,Wunderground v.1.15,2013-02-05 08:03:00,
2013-02-05 00:09:00,47.2,43.2,29.98,WNW,302,1.0,4.0,86,0.00,,,0.00,Wunderground v.1.15,2013-02-05 08:09:00,
2013-02-05 00:15:00,47.2,43.2,29.98,South,169,1.0,2.0,86,0.00,,,0.00,Wunderground v.1.15,2013-02-05 08:15:00,
2013-02-05 00:20:00,47.2,43.2,29.98,ENE,68,1.0,1.0,86,0.00,,,0.00,Wunderground v.1.15,2013-02-05 08:20:00,
2013-02-05 00:25:00,47.2,43.2,29.98,NE,53,1.0,1.0,86,0.00,,,0.00,Wunderground v.1.15,2013-02-05 08:25:00,
2013-02-05 00:30:00,47.1,43.4,29.98,NE,53,0.0,0.0,87,0.00,,,0.00,Wunderground v.1.15,2013-02-05 08:30:00,
2013-02-05 00:36:00,47.0,43.3,29.98,NE,38,1.0,3.0,87,0.00,,,0.00,Wunderground v.1.15,2013-02-05 08:36:00,
2013-02-05 00:42:00,46.9,43.2,29.98,SSE,153,1.0,2.0,87,0.00,,,0.00,Wunderground v.1.15,2013-02-05 08:42:00,
2013-02-05 00:47:00,46.8,43.1,29.98,SSE,159,1.0,2.0,87,0.00,,,0.00,Wunderground v.1.15,2013-02-05 08:47:00,
2013-02-05 00:53:00,46.8,43.1,29.97,SSE,156,1.0,3.0,87,0.00,,,0.00,Wunderground v.1.15,2013-02-05 08:53:00,
2013-02-05 00:59:00,46.8,43.1,29.97,SSE,147,1.0,3.0,87,0.00,,,0.00,Wunderground v.1.15,2013-02-05 08:59:00,
2013-02-05 01:04:00,46.9,43.2,29.97,ESE,102,1.0,3.0,87,0.00,,,0.00,Wunderground v.1.15,2013-02-05 09:04:00,
2013-02-05 01:10:00,46.9,43.5,29.97,NE,45,1.0,1.0,88,0.00,,,0.00,Wunderground v.1.15,2013-02-05 09:10:00,
2013-02-05 01:16:00,46.8,43.4,29.97,NNE,22,1.0,2.0,88,0.00,,,0.00,Wunderground v.1.15,2013-02-05 09:16:00,
2013-02-05 01:21:00,46.7,43.3,29.97,North,5,0.0,1.0,88,0.00,,,0.00,Wunderground v.1.15,2013-02-05 09:21:00,
2013-02-05 01:27:00,46.7,43.3,29.97,ENE,71,0.0,1.0,88,0.00,,,0.00,Wunderground v.1.15,2013-02-05 09:27:00,
2013-02-05 01:33:00,46.7,43.3,29.97,NW,313,1.0,1.0,88,0.00,,,0.00,Wunderground v.1.15,2013-02-05 09:33:00,
2013-02-05 01:38:00,46.7,43.3,29.97,NNE,32,1.0,1.0,88,0.00,,,0.00,Wunderground v.1.15,2013-02-05 09:38:00,
2013-02-05 01:44:00,46.7,43.3,29.97,NE,47,0.0,2.0,88,0.00,,,0.00,Wunderground v.1.15,2013-02-05 09:44:00,
2013-02-05 01:50:00,46.7,43.3,29.96,NE,52,0.0,2.0,88,0.00,,,0.00,Wunderground v.1.15,2013-02-05 09:50:00,
2013-02-05 01:56:00,46.7,43.3,29.96,South,170,1.0,2.0,88,0.00,,,0.00,Wunderground v.1.15,2013-02-05 09:56:00,
2013-02-05 02:02:00,46.6,43.5,29.96,South,182,1.0,1.0,89,0.00,,,0.00,Wunderground v.1.15,2013-02-05 10:02:00,
2013-02-05 02:07:00,46.5,43.7,29.95,South,182,0.0,1.0,90,0.00,,,0.00,Wunderground v.1.15,2013-02-05 10:07:00,
2013-02-05 02:12:00,46.3,43.5,29.96,South,182,0.0,0.0,90,0.00,,,0.00,Wunderground v.1.15,2013-02-05 10:12:00,
2013-02-05 02:18:00,46.1,43.9,29.96,South,182,0.0,1.0,92,0.00,,,0.00,Wunderground v.1.15,2013-02-05 10:18:00,
2013-02-05 02:24:00,46.0,43.8,29.95,North,351,0.0,2.0,92,0.00,,,0.00,Wunderground v.1.15,2013-02-05 10:24:00,
2013-02-05 02:30:00,45.8,43.9,29.95,North,351,0.0,0.0,93,0.00,,,0.00,Wunderground v.1.15,2013-02-05 10:30:00,
2013-02-05 02:35:00,45.7,43.8,29.95,North,351,0.0,0.0,93,0.00,,,0.00,Wunderground v.1.15,2013-02-05 10:35:00,
2013-02-05 02:40:00,45.6,43.7,29.95,North,351,0.0,0.0,93,0.00,,,0.00,Wunderground v.1.15,2013-02-05 10:40:00,
2013-02-05 02:45:00,45.6,44.0,29.95,North,351,0.0,0.0,94,0.00,,,0.00,Wunderground v.1.15,2013-02-05 10:45:00,
2013-02-05 02:50:00,45.5,43.9,29.95,North,351,0.0,0.0,94,0.00,,,0.00,Wunderground v.1.15,2013-02-05 10:50:00,
2013-02-05 02:56:00,45.4,43.8,29.95,North,351,0.0,0.0,94,0.00,,,0.00,Wunderground v.1.15,2013-02-05 10:56:00,
2013-02-05 03:02:00,45.4,44.1,29.94,North,351,0.0,0.0,95,0.00,,,0.00,Wunderground v.1.15,2013-02-05 11:02:00,
2013-02-05 03:07:00,45.3,44.0,29.94,North,351,0.0,0.0,95,0.00,,,0.00,Wunderground v.1.15,2013-02-05 11:07:00,
2013-02-05 03:13:00,45.2,43.9,29.94,North,351,0.0,0.0,95,0.00,,,0.00,Wunderground v.1.15,2013-02-05 11:13:00,
2013-02-05 03:19:00,45.1,43.8,29.94,North,351,0.0,0.0,95,0.00,,,0.01,Wunderground v.1.15,2013-02-05 11:19:00,
2013-02-05 03:25:00,45.1,43.8,29.94,North,351,0.0,0.0,95,0.00,,,0.01,Wunderground v.1.15,2013-02-05 11:25:00,
2013-02-05 03:31:00,45.0,43.9,29.94,North,351,0.0,0.0,96,0.00,,,0.01,Wunderground v.1.15,2013-02-05 11:31:00,
2013-02-05 03:36:00,44.9,43.8,29.94,North,351,0.0,0.0,96,0.00,,,0.02,Wunderground v.1.15,2013-02-05 11:36:00,
2013-02-05 03:42:00,44.9,43.8,29.94,North,351,0.0,0.0,96,0.12,,,0.03,Wunderground v.1.15,2013-02-05 11:42:00,
2013-02-05 03:48:00,44.8,43.7,29.94,North,351,0.0,0.0,96,0.10,,,0.04,Wunderground v.1.15,2013-02-05 11:48:00,
2013-02-05 03:54:00,44.8,43.7,29.94,North,351,0.0,0.0,96,0.13,,,0.05,Wunderground v.1.15,2013-02-05 11:54:00,
2013-02-05 03:59:00,44.7,43.6,29.94,North,351,0.0,0.0,96,0.08,,,0.06,Wunderground v.1.15,2013-02-05 11:59:00,
2013-02-05 04:04:00,44.7,43.9,29.94,SW,225,0.0,2.0,97,0.08,,,0.06,Wunderground v.1.15,2013-02-05 12:04:00,
2013-02-05 04:10:00,44.7,43.9,29.94,SW,225,0.0,0.0,97,0.09,,,0.07,Wunderground v.1.15,2013-02-05 12:10:00,
2013-02-05 04:15:00,44.7,43.9,29.94,South,182,0.0,1.0,97,0.22,,,0.09,Wunderground v.1.15,2013-02-05 12:15:00,
2013-02-05 04:21:00,44.7,43.9,29.94,SSE,157,0.0,1.0,97,0.08,,,0.09,Wunderground v.1.15,2013-02-05 12:21:00,
2013-02-05 04:27:00,44.7,43.9,29.94,SSE,157,0.0,1.0,97,0.04,,,0.09,Wunderground v.1.15,2013-02-05 12:27:00,
2013-02-05 04:32:00,44.7,43.9,29.94,SSE,157,0.0,0.0,97,0.00,,,0.09,Wunderground v.1.15,2013-02-05 12:32:00,
2013-02-05 04:37:00,44.7,43.9,29.94,SSE,157,0.0,0.0,97,0.00,,,0.09,Wunderground v.1.15,2013-02-05 12:37:00,
2013-02-05 04:43:00,44.7,43.9,29.94,ENE,74,0.0,2.0,97,0.00,,,0.10,Wunderground v.1.15,2013-02-05 12:43:00,
2013-02-05 04:48:00,44.8,44.0,29.93,ENE,70,1.0,2.0,97,0.00,,,0.10,Wunderground v.1.15,2013-02-05 12:48:00,
2013-02-05 04:54:00,44.9,44.1,29.93,ENE,70,0.0,1.0,97,0.06,,,0.11,Wunderground v.1.15,2013-02-05 12:54:00,
2013-02-05 05:00:00,44.9,44.1,29.93,ENE,70,0.0,0.0,97,0.06,,,0.11,Wunderground v.1.15,2013-02-05 13:00:00,
2013-02-05 05:05:00,44.9,44.1,29.93,ENE,70,0.0,0.0,97,0.04,,,0.11,Wunderground v.1.15,2013-02-05 13:05:00,
2013-02-05 05:12:00,44.9,44.1,29.93,ESE,113,0.0,0.0,97,0.00,,,0.11,Wunderground v.1.15,2013-02-05 13:12:00,
2013-02-05 05:18:00,44.9,44.1,29.92,ESE,114,0.0,1.0,97,0.00,,,0.11,Wunderground v.1.15,2013-02-05 13:18:00,
2013-02-05 05:24:00,45.0,44.2,29.92,ESE,113,0.0,0.0,97,0.00,,,0.11,Wunderground v.1.15,2013-02-05 13:24:00,
2013-02-05 05:30:00,45.0,44.2,29.92,ESE,114,0.0,0.0,97,0.00,,,0.11,Wunderground v.1.15,2013-02-05 13:30:00,
2013-02-05 05:35:00,45.1,44.3,29.92,South,186,0.0,0.0,97,0.00,,,0.11,Wunderground v.1.15,2013-02-05 13:35:00,
2013-02-05 05:41:00,45.1,44.3,29.92,East,86,0.0,0.0,97,0.00,,,0.12,Wunderground v.1.15,2013-02-05 13:41:00,
2013-02-05 05:47:00,45.2,44.4,29.91,East,86,0.0,0.0,97,0.00,,,0.12,Wunderground v.1.15,2013-02-05 13:47:00,
2013-02-05 05:53:00,45.2,44.4,29.92,East,86,0.0,0.0,97,0.00,,,0.12,Wunderground v.1.15,2013-02-05 13:53:00,
2013-02-05 05:59:00,45.2,44.4,29.92,East,86,0.0,0.0,97,0.00,,,0.12,Wunderground v.1.15,2013-02-05 13:59:00,
2013-02-05 06:04:00,45.3,44.5,29.92,East,86,0.0,0.0,97,0.00,,,0.12,Wunderground v.1.15,2013-02-05 14:04:00,
2013-02-05 06:09:00,45.2,44.4,29.92,East,86,0.0,0.0,97,0.00,,,0.12,Wunderground v.1.15,2013-02-05 14:09:00,
2013-02-05 06:15:00,45.2,44.4,29.92,East,86,0.0,2.0,97,0.00,,,0.13,Wunderground v.1.15,2013-02-05 14:15:00,
2013-02-05 06:21:00,45.2,44.4,29.92,East,86,0.0,0.0,97,0.00,,,0.13,Wunderground v.1.15,2013-02-05 14:21:00,
2013-02-05 06:27:00,45.2,44.4,29.92,East,86,0.0,0.0,97,0.00,,,0.13,Wunderground v.1.15,2013-02-05 14:27:00,
2013-02-05 06:32:00,45.3,44.5,29.92,East,86,0.0,0.0,97,0.00,,,0.14,Wunderground v.1.15,2013-02-05 14:32:00,
2013-02-05 06:37:00,45.4,44.6,29.92,ENE,67,1.0,2.0,97,0.00,,,0.14,Wunderground v.1.15,2013-02-05 14:37:00,
2013-02-05 06:42:00,45.4,44.6,29.92,NE,35,1.0,1.0,97,0.00,,,0.14,Wunderground v.1.15,2013-02-05 14:42:00,
2013-02-05 06:47:00,45.4,44.6,29.92,NE,35,1.0,1.0,97,0.05,,,0.15,Wunderground v.1.15,2013-02-05 14:47:00,
2013-02-05 06:52:00,45.4,44.6,29.92,NE,42,0.0,0.0,97,0.11,,,0.16,Wunderground v.1.15,2013-02-05 14:52:00,
2013-02-05 06:58:00,45.5,44.7,29.92,NE,42,0.0,1.0,97,0.08,,,0.17,Wunderground v.1.15,2013-02-05 14:58:00,
2013-02-05 07:03:00,45.6,45.1,29.92,SE,140,1.0,1.0,98,0.12,,,0.18,Wunderground v.1.15,2013-02-05 15:03:00,
2013-02-05 07:08:00,45.6,45.1,29.92,SE,140,1.0,1.0,98,0.13,,,0.19,Wunderground v.1.15,2013-02-05 15:08:00,
2013-02-05 07:14:00,45.7,45.2,29.92,SE,140,0.0,1.0,98,0.07,,,0.19,Wunderground v.1.15,2013-02-05 15:14:00,
2013-02-05 07:20:00,45.8,45.3,29.92,NE,43,0.0,0.0,98,0.04,,,0.19,Wunderground v.1.15,2013-02-05 15:20:00,
2013-02-05 07:25:00,45.8,45.3,29.92,NE,43,0.0,0.0,98,0.00,,,0.19,Wunderground v.1.15,2013-02-05 15:25:00,
2013-02-05 07:31:00,45.8,45.3,29.92,NE,43,0.0,0.0,98,0.00,,,0.19,Wunderground v.1.15,2013-02-05 15:31:00,
2013-02-05 07:37:00,45.8,45.3,29.92,ESE,115,0.0,1.0,98,0.00,,,0.19,Wunderground v.1.15,2013-02-05 15:37:00,
2013-02-05 07:42:00,45.9,45.4,29.93,ENE,63,1.0,2.0,98,0.00,,,0.19,Wunderground v.1.15,2013-02-05 15:42:00,
2013-02-05 07:47:00,46.0,45.5,29.93,ENE,59,1.0,2.0,98,0.00,,,0.19,Wunderground v.1.15,2013-02-05 15:47:00,
2013-02-05 07:53:00,46.1,45.6,29.93,ENE,59,1.0,1.0,98,0.00,,,0.20,Wunderground v.1.15,2013-02-05 15:53:00,
2013-02-05 07:59:00,46.1,45.6,29.93,ENE,59,0.0,1.0,98,0.00,,,0.20,Wunderground v.1.15,2013-02-05 15:59:00,
2013-02-05 08:04:00,46.2,45.7,29.93,ENE,59,0.0,0.0,98,0.00,,,0.20,Wunderground v.1.15,2013-02-05 16:04:00,
2013-02-05 08:10:00,46.3,45.8,29.93,ENE,59,0.0,0.0,98,0.00,,,0.20,Wunderground v.1.15,2013-02-05 16:10:00,
2013-02-05 08:16:00,46.3,45.8,29.93,ENE,59,0.0,1.0,98,0.00,,,0.20,Wunderground v.1.15,2013-02-05 16:16:00,
2013-02-05 08:22:00,46.4,45.9,29.93,ENE,59,0.0,0.0,98,0.00,,,0.20,Wunderground v.1.15,2013-02-05 16:22:00,
2013-02-05 08:27:00,46.4,45.9,29.93,ENE,59,0.0,0.0,98,0.00,,,0.20,Wunderground v.1.15,2013-02-05 16:27:00,
2013-02-05 08:33:00,46.4,45.9,29.94,ENE,59,0.0,0.0,98,0.00,,,0.20,Wunderground v.1.15,2013-02-05 16:33:00,
2013-02-05 08:38:00,46.5,46.0,29.94,ENE,59,0.0,1.0,98,0.00,,,0.20,Wunderground v.1.15,2013-02-05 16:38:00,
2013-02-05 08:44:00,46.7,46.2,29.93,ENE,59,0.0,0.0,98,0.00,,,0.20,Wunderground v.1.15,2013-02-05 16:44:00,
2013-02-05 08:49:00,46.7,46.2,29.94,NW,326,0.0,2.0,98,0.00,,,0.20,Wunderground v.1.15,2013-02-05 16:49:00,
2013-02-05 08:55:00,46.9,46.4,29.94,NW,326,0.0,0.0,98,0.00,,,0.20,Wunderground v.1.15,2013-02-05 16:55:00,
2013-02-05 09:01:00,47.0,46.5,29.94,WSW,248,0.0,0.0,98,0.00,,,0.20,Wunderground v.1.15,2013-02-05 17:01:00,
2013-02-05 09:06:00,47.2,46.7,29.93,WNW,288,0.0,1.0,98,0.00,,,0.20,Wunderground v.1.15,2013-02-05 17:06:00,
2013-02-05 09:12:00,47.3,46.8,29.94,NNE,32,1.0,2.0,98,0.00,,,0.20,Wunderground v.1.15,2013-02-05 17:12:00,
2013-02-05 09:17:00,47.4,46.9,29.94,NNE,32,1.0,2.0,98,0.00,,,0.20,Wunderground v.1.15,2013-02-05 17:17:00,
2013-02-05 09:22:00,47.6,47.1,29.94,ESE,116,0.0,1.0,98,0.00,,,0.20,Wunderground v.1.15,2013-02-05 17:22:00,
2013-02-05 09:28:00,47.8,47.3,29.94,NE,46,0.0,3.0,98,0.00,,,0.20,Wunderground v.1.15,2013-02-05 17:28:00,
2013-02-05 09:34:00,48.0,47.5,29.94,NE,41,1.0,2.0,98,0.00,,,0.20,Wunderground v.1.15,2013-02-05 17:34:00,
2013-02-05 09:40:00,48.1,47.6,29.94,NE,41,0.0,2.0,98,0.00,,,0.20,Wunderground v.1.15,2013-02-05 17:40:00,
2013-02-05 09:45:00,48.1,47.6,29.94,NE,41,0.0,2.0,98,0.00,,,0.20,Wunderground v.1.15,2013-02-05 17:45:00,
2013-02-05 09:51:00,48.1,47.3,29.94,NE,41,0.0,0.0,97,0.00,,,0.20,Wunderground v.1.15,2013-02-05 17:51:00,
2013-02-05 09:56:00,48.2,47.4,29.94,NE,41,0.0,1.0,97,0.00,,,0.20,Wunderground v.1.15,2013-02-05 17:56:00,
2013-02-05 10:02:00,48.2,47.4,29.94,NE,41,0.0,0.0,97,0.00,,,0.21,Wunderground v.1.15,2013-02-05 18:02:00,
2013-02-05 10:07:00,48.2,47.4,29.94,NE,41,0.0,1.0,97,0.00,,,0.21,Wunderground v.1.15,2013-02-05 18:07:00,
2013-02-05 10:13:00,48.3,47.5,29.94,NE,41,0.0,0.0,97,0.00,,,0.21,Wunderground v.1.15,2013-02-05 18:13:00,
2013-02-05 10:19:00,48.5,47.7,29.95,NE,41,0.0,0.0,97,0.00,,,0.21,Wunderground v.1.15,2013-02-05 18:19:00,
2013-02-05 10:25:00,48.5,47.7,29.95,NE,41,0.0,1.0,97,0.00,,,0.21,Wunderground v.1.15,2013-02-05 18:25:00,
2013-02-05 10:31:00,48.6,47.8,29.95,NE,41,0.0,0.0,97,0.00,,,0.21,Wunderground v.1.15,2013-02-05 18:31:00,
2013-02-05 10:36:00,48.8,48.0,29.95,SE,145,1.0,3.0,97,0.00,,,0.21,Wunderground v.1.15,2013-02-05 18:36:00,
2013-02-05 10:42:00,49.0,47.9,29.95,NW,312,1.0,2.0,96,0.00,,,0.21,Wunderground v.1.15,2013-02-05 18:42:00,
2013-02-05 10:48:00,49.2,47.3,29.96,West,281,2.0,6.0,93,0.00,,,0.21,Wunderground v.1.15,2013-02-05 18:48:00,
2013-02-05 10:53:00,49.3,47.1,29.96,West,265,2.0,6.0,92,0.15,,,0.23,Wunderground v.1.15,2013-02-05 18:53:00,
2013-02-05 10:58:00,49.5,47.6,29.96,West,275,3.0,6.0,93,0.06,,,0.23,Wunderground v.1.15,2013-02-05 18:58:00,
2013-02-05 11:04:00,50.0,47.5,29.96,WNW,283,3.0,4.0,91,0.04,,,0.23,Wunderground v.1.15,2013-02-05 19:04:00,
2013-02-05 11:09:00,50.1,47.6,29.96,WNW,282,2.0,4.0,91,0.00,,,0.23,Wunderground v.1.15,2013-02-05 19:09:00,
2013-02-05 11:15:00,50.0,47.2,29.96,SW,216,2.0,5.0,90,0.00,,,0.23,Wunderground v.1.15,2013-02-05 19:15:00,
2013-02-05 11:20:00,50.0,47.8,29.96,SW,216,1.0,1.0,92,0.00,,,0.23,Wunderground v.1.15,2013-02-05 19:20:00,
2013-02-05 11:26:00,50.1,47.6,29.96,SSE,155,0.0,1.0,91,0.00,,,0.23,Wunderground v.1.15,2013-02-05 19:26:00,
2013-02-05 11:32:00,49.9,47.4,29.95,WSW,242,2.0,3.0,91,0.00,,,0.23,Wunderground v.1.15,2013-02-05 19:32:00,
2013-02-05 11:38:00,49.8,47.6,29.96,WSW,258,3.0,5.0,92,0.00,,,0.23,Wunderground v.1.15,2013-02-05 19:38:00,
2013-02-05 11:43:00,49.9,47.7,29.96,NW,321,3.0,3.0,92,0.00,,,0.23,Wunderground v.1.15,2013-02-05 19:43:00,
2013-02-05 11:49:00,50.0,47.2,29.96,SSW,208,1.0,3.0,90,0.00,,,0.23,Wunderground v.1.15,2013-02-05 19:49:00,
2013-02-05 11:54:00,50.2,47.4,29.96,WNW,301,1.0,3.0,90,0.00,,,0.23,Wunderground v.1.15,2013-02-05 19:54:00,
2013-02-05 11:59:00,50.6,47.8,29.96,NW,314,1.0,3.0,90,0.00,,,0.23,Wunderground v.1.15,2013-02-05 19:59:00,
2013-02-05 12:04:00,50.9,47.8,29.96,WSW,244,1.0,4.0,89,0.00,,,0.23,Wunderground v.1.15,2013-02-05 20:04:00,
2013-02-05 12:10:00,50.9,46.6,29.96,West,279,2.0,2.0,85,0.00,,,0.23,Wunderground v.1.15,2013-02-05 20:10:00,
2013-02-05 12:16:00,50.8,47.1,29.96,SW,236,1.0,2.0,87,0.00,,,0.23,Wunderground v.1.15,2013-02-05 20:16:00,
2013-02-05 12:22:00,50.6,46.9,29.96,SSW,212,1.0,2.0,87,0.00,,,0.23,Wunderground v.1.15,2013-02-05 20:22:00,
2013-02-05 12:27:00,50.5,47.4,29.96,SSE,153,1.0,3.0,89,0.00,,,0.23,Wunderground v.1.15,2013-02-05 20:27:00,
2013-02-05 12:32:00,50.4,47.3,29.96,SSE,159,1.0,2.0,89,0.00,,,0.23,Wunderground v.1.15,2013-02-05 20:32:00,
2013-02-05 12:37:00,50.4,47.6,29.95,East,97,1.0,2.0,90,0.00,,,0.23,Wunderground v.1.15,2013-02-05 20:37:00,
2013-02-05 12:43:00,50.0,46.9,29.95,SW,234,1.0,2.0,89,0.00,,,0.23,Wunderground v.1.15,2013-02-05 20:43:00,
2013-02-05 12:48:00,49.9,46.8,29.95,SSW,196,2.0,5.0,89,0.00,,,0.23,Wunderground v.1.15,2013-02-05 20:48:00,
2013-02-05 12:54:00,49.8,47.0,29.95,South,170,1.0,1.0,90,0.00,,,0.23,Wunderground v.1.15,2013-02-05 20:54:00,
2013-02-05 13:00:00,49.8,47.3,29.95,West,281,0.0,2.0,91,0.00,,,0.23,Wunderground v.1.15,2013-02-05 21:00:00,
2013-02-05 13:05:00,49.8,47.3,29.95,NNW,345,1.0,2.0,91,0.00,,,0.23,Wunderground v.1.15,2013-02-05 21:05:00,
2013-02-05 13:11:00,49.7,47.2,29.95,West,273,1.0,2.0,91,0.00,,,0.24,Wunderground v.1.15,2013-02-05 21:11:00,
2013-02-05 13:17:00,49.6,47.4,29.94,NNE,25,0.0,2.0,92,0.00,,,0.24,Wunderground v.1.15,2013-02-05 21:17:00,
2013-02-05 13:23:00,49.5,47.3,29.95,West,264,1.0,4.0,92,0.00,,,0.24,Wunderground v.1.15,2013-02-05 21:23:00,
2013-02-05 13:28:00,49.1,46.6,29.95,NW,304,2.0,4.0,91,0.00,,,0.24,Wunderground v.1.15,2013-02-05 21:28:00,
2013-02-05 13:33:00,48.9,46.7,29.95,NW,311,2.0,3.0,92,0.00,,,0.24,Wunderground v.1.15,2013-02-05 21:33:00,
2013-02-05 13:38:00,49.0,47.1,29.95,WNW,286,1.0,3.0,93,0.00,,,0.24,Wunderground v.1.15,2013-02-05 21:38:00,
2013-02-05 13:44:00,49.6,47.4,29.94,North,9,1.0,5.0,92,0.00,,,0.24,Wunderground v.1.15,2013-02-05 21:44:00,
2013-02-05 13:50:00,50.2,47.4,29.94,West,272,2.0,5.0,90,0.00,,,0.24,Wunderground v.1.15,2013-02-05 21:50:00,
2013-02-05 13:56:00,50.4,47.0,29.94,West,261,3.0,6.0,88,0.00,,,0.24,Wunderground v.1.15,2013-02-05 21:56:00,
2013-02-05 14:01:00,50.5,46.8,29.94,WSW,244,2.0,4.0,87,0.00,,,0.24,Wunderground v.1.15,2013-02-05 22:01:00,
2013-02-05 14:07:00,50.4,46.7,29.94,SW,223,2.0,5.0,87,0.00,,,0.24,Wunderground v.1.15,2013-02-05 22:07:00,
2013-02-05 14:13:00,50.3,46.9,29.94,West,263,3.0,4.0,88,0.00,,,0.24,Wunderground v.1.15,2013-02-05 22:13:00,
2013-02-05 14:18:00,49.9,46.8,29.94,West,274,3.0,5.0,89,0.00,,,0.24,Wunderground v.1.15,2013-02-05 22:18:00,
2013-02-05 14:24:00,49.6,46.8,29.94,West,276,2.0,3.0,90,0.00,,,0.25,Wunderground v.1.15,2013-02-05 22:24:00,
2013-02-05 14:30:00,49.3,46.8,29.94,South,184,1.0,1.0,91,0.06,,,0.26,Wunderground v.1.15,2013-02-05 22:30:00,
2013-02-05 14:35:00,49.0,46.5,29.95,WSW,244,2.0,21.0,91,0.15,,,0.27,Wunderground v.1.15,2013-02-05 22:35:00,
2013-02-05 14:41:00,47.3,43.9,29.95,West,267,7.0,7.0,88,0.11,,,0.28,Wunderground v.1.15,2013-02-05 22:41:00,
2013-02-05 14:47:00,46.2,43.4,29.96,WNW,292,5.0,7.0,90,0.16,,,0.30,Wunderground v.1.15,2013-02-05 22:47:00,
2013-02-05 17:43:00,46.2,45.4,29.99,SSW,202,0.0,0.0,97,0.00,,,0.57,Wunderground v.1.15,2013-02-06 01:43:00,
2013-02-05 17:49:00,46.4,45.6,29.98,North,355,0.0,1.0,97,0.00,,,0.57,Wunderground v.1.15,2013-02-06 01:49:00,
2013-02-05 17:54:00,46.5,45.7,29.99,NE,46,0.0,2.0,97,0.00,,,0.57,Wunderground v.1.15,2013-02-06 01:54:00,
2013-02-05 17:59:00,46.6,45.8,29.99,NW,320,0.0,2.0,97,0.00,,,0.57,Wunderground v.1.15,2013-02-06 01:59:00,
2013-02-05 18:04:00,46.8,46.0,29.99,West,273,1.0,3.0,97,0.00,,,0.57,Wunderground v.1.15,2013-02-06 02:04:00,
2013-02-05 18:10:00,47.1,46.0,29.99,West,276,1.0,1.0,96,0.00,,,0.57,Wunderground v.1.15,2013-02-06 02:10:00,
2013-02-05 18:16:00,47.1,46.0,29.99,West,276,1.0,1.0,96,0.00,,,0.57,Wunderground v.1.15,2013-02-06 02:16:00,
2013-02-05 18:21:00,47.0,45.9,29.99,West,276,0.0,0.0,96,0.00,,,0.57,Wunderground v.1.15,2013-02-06 02:21:00,
2013-02-05 18:26:00,46.9,45.8,29.98,South,190,0.0,1.0,96,0.00,,,0.57,Wunderground v.1.15,2013-02-06 02:26:00,
2013-02-05 18:31:00,46.9,45.8,29.99,SW,215,0.0,2.0,96,0.00,,,0.57,Wunderground v.1.15,2013-02-06 02:31:00,
2013-02-05 18:37:00,46.9,45.8,29.98,SE,138,0.0,2.0,96,0.00,,,0.57,Wunderground v.1.15,2013-02-06 02:37:00,
2013-02-05 18:42:00,46.9,45.8,29.99,SE,138,0.0,0.0,96,0.00,,,0.57,Wunderground v.1.15,2013-02-06 02:42:00,
2013-02-05 18:48:00,46.8,45.7,29.99,SE,139,0.0,1.0,96,0.00,,,0.57,Wunderground v.1.15,2013-02-06 02:48:00,
2013-02-05 18:53:00,46.7,45.6,29.99,WSW,246,0.0,0.0,96,0.00,,,0.57,Wunderground v.1.15,2013-02-06 02:53:00,
2013-02-05 18:58:00,46.7,45.6,29.99,West,268,0.0,2.0,96,0.00,,,0.57,Wunderground v.1.15,2013-02-06 02:58:00,
2013-02-05 19:03:00,46.6,45.8,29.99,NNW,347,0.0,0.0,97,0.00,,,0.58,Wunderground v.1.15,2013-02-06 03:03:00,
2013-02-05 19:09:00,46.5,45.7,30.00,SW,232,1.0,3.0,97,0.00,,,0.58,Wunderground v.1.15,2013-02-06 03:09:00,
2013-02-05 19:15:00,46.6,45.0,30.00,West,276,2.0,5.0,94,0.00,,,0.58,Wunderground v.1.15,2013-02-06 03:15:00,
2013-02-05 19:21:00,46.7,45.1,30.00,SW,232,1.0,2.0,94,0.00,,,0.58,Wunderground v.1.15,2013-02-06 03:21:00,
2013-02-05 19:26:00,46.6,45.0,30.00,North,350,1.0,2.0,94,0.00,,,0.58,Wunderground v.1.15,2013-02-06 03:26:00,
2013-02-05 19:32:00,46.3,44.4,30.01,NW,308,0.0,1.0,93,0.00,,,0.58,Wunderground v.1.15,2013-02-06 03:32:00,
2013-02-05 19:37:00,46.2,44.6,30.00,ESE,107,0.0,1.0,94,0.00,,,0.59,Wunderground v.1.15,2013-02-06 03:37:00,
2013-02-05 19:42:00,46.1,44.5,30.01,ESE,107,0.0,0.0,94,0.00,,,0.59,Wunderground v.1.15,2013-02-06 03:42:00,
2013-02-05 19:48:00,45.9,44.5,30.01,ESE,107,0.0,0.0,95,0.00,,,0.59,Wunderground v.1.15,2013-02-06 03:48:00,
2013-02-05 19:54:00,45.8,44.7,30.01,ESE,107,0.0,0.0,96,0.00,,,0.59,Wunderground v.1.15,2013-02-06 03:54:00,
2013-02-05 20:00:00,45.6,44.5,30.01,ESE,107,0.0,0.0,96,0.00,,,0.59,Wunderground v.1.15,2013-02-06 04:00:00,
2013-02-05 20:06:00,45.6,44.5,30.01,NE,40,0.0,1.0,96,0.00,,,0.59,Wunderground v.1.15,2013-02-06 04:06:00,
2013-02-05 20:11:00,45.5,44.4,30.02,West,263,0.0,0.0,96,0.00,,,0.59,Wunderground v.1.15,2013-02-06 04:11:00,
2013-02-05 20:16:00,45.7,44.9,30.02,West,268,1.0,4.0,97,0.00,,,0.59,Wunderground v.1.15,2013-02-06 04:16:00,
2013-02-05 20:22:00,46.3,45.2,30.02,West,278,2.0,3.0,96,0.00,,,0.59,Wunderground v.1.15,2013-02-06 04:22:00,
2013-02-05 20:27:00,46.8,45.4,30.02,WNW,295,2.0,7.0,95,0.00,,,0.59,Wunderground v.1.15,2013-02-06 04:27:00,
2013-02-05 20:33:00,47.2,45.6,30.02,West,269,3.0,3.0,94,0.00,,,0.59,Wunderground v.1.15,2013-02-06 04:33:00,
2013-02-05 20:39:00,47.1,45.5,30.02,West,269,0.0,3.0,94,0.00,,,0.59,Wunderground v.1.15,2013-02-06 04:39:00,
2013-02-05 20:44:00,47.0,45.6,30.02,West,269,0.0,0.0,95,0.00,,,0.59,Wunderground v.1.15,2013-02-06 04:44:00,
2013-02-05 20:50:00,46.8,45.4,30.02,West,272,0.0,1.0,95,0.00,,,0.59,Wunderground v.1.15,2013-02-06 04:50:00,
2013-02-05 20:55:00,46.7,45.6,30.02,West,272,0.0,1.0,96,0.00,,,0.59,Wunderground v.1.15,2013-02-06 04:55:00,
2013-02-05 21:00:00,46.6,45.5,30.02,East,89,0.0,0.0,96,0.00,,,0.59,Wunderground v.1.15,2013-02-06 05:00:00,
2013-02-05 21:01:00,46.5,45.4,30.02,East,89,0.0,0.0,96,0.00,,,0.59,Wunderground v.1.15,2013-02-06 05:01:00,
2013-02-05 21:02:00,46.5,45.4,30.02,East,89,0.0,0.0,96,0.00,,,0.59,Wunderground v.1.15,2013-02-06 05:02:00,
2013-02-05 21:03:00,46.5,45.4,30.02,East,89,0.0,0.0,96,0.00,,,0.59,Wunderground v.1.15,2013-02-06 05:03:00,
2013-02-05 21:09:00,46.6,45.5,30.02,SSW,205,0.0,1.0,96,0.00,,,0.59,Wunderground v.1.15,2013-02-06 05:09:00,
2013-02-05 21:14:00,46.6,45.5,30.03,SW,227,1.0,6.0,96,0.00,,,0.59,Wunderground v.1.15,2013-02-06 05:14:00,
2013-02-05 21:20:00,46.9,45.5,30.03,SW,232,1.0,1.0,95,0.00,,,0.59,Wunderground v.1.15,2013-02-06 05:20:00,
2013-02-05 21:25:00,46.9,45.3,30.03,West,280,1.0,3.0,94,0.00,,,0.59,Wunderground v.1.15,2013-02-06 05:25:00,
2013-02-05 21:30:00,47.0,45.1,30.03,WSW,240,1.0,3.0,93,0.00,,,0.59,Wunderground v.1.15,2013-02-06 05:30:00,
2013-02-05 21:35:00,47.2,45.0,30.03,East,90,2.0,4.0,92,0.00,,,0.59,Wunderground v.1.15,2013-02-06 05:35:00,
2013-02-05 21:41:00,47.2,45.0,30.03,WSW,254,1.0,1.0,92,0.00,,,0.59,Wunderground v.1.15,2013-02-06 05:41:00,
2013-02-05 21:47:00,46.9,45.0,30.03,WSW,254,0.0,1.0,93,0.00,,,0.59,Wunderground v.1.15,2013-02-06 05:47:00,
2013-02-05 21:52:00,46.8,45.2,30.03,WSW,254,0.0,0.0,94,0.00,,,0.59,Wunderground v.1.15,2013-02-06 05:52:00,
2013-02-05 21:58:00,46.5,44.9,30.03,WSW,254,0.0,0.0,94,0.00,,,0.59,Wunderground v.1.15,2013-02-06 05:58:00,
2013-02-05 22:04:00,46.3,44.9,30.03,WSW,254,0.0,0.0,95,0.00,,,0.59,Wunderground v.1.15,2013-02-06 06:04:00,
2013-02-05 22:09:00,46.1,44.7,30.03,WSW,254,0.0,0.0,95,0.00,,,0.59,Wunderground v.1.15,2013-02-06 06:09:00,
2013-02-05 22:15:00,45.9,44.8,30.04,WSW,254,0.0,0.0,96,0.00,,,0.59,Wunderground v.1.15,2013-02-06 06:15:00,
2013-02-05 22:21:00,45.8,44.7,30.04,WSW,254,0.0,1.0,96,0.00,,,0.59,Wunderground v.1.15,2013-02-06 06:21:00,
2013-02-05 22:26:00,45.7,44.6,30.04,WSW,254,0.0,1.0,96,0.00,,,0.59,Wunderground v.1.15,2013-02-06 06:26:00,
2013-02-05 22:32:00,45.6,44.5,30.04,WSW,254,0.0,0.0,96,0.00,,,0.59,Wunderground v.1.15,2013-02-06 06:32:00,
2013-02-05 22:38:00,45.5,44.7,30.04,WSW,254,0.0,1.0,97,0.00,,,0.59,Wunderground v.1.15,2013-02-06 06:38:00,
2013-02-05 22:44:00,45.5,44.7,30.05,WSW,254,0.0,0.0,97,0.00,,,0.59,Wunderground v.1.15,2013-02-06 06:44:00,
2013-02-05 22:50:00,45.5,44.7,30.05,WSW,254,0.0,0.0,97,0.00,,,0.59,Wunderground v.1.15,2013-02-06 06:50:00,
2013-02-05 22:56:00,45.6,44.8,30.05,West,281,0.0,1.0,97,0.00,,,0.59,Wunderground v.1.15,2013-02-06 06:56:00,
2013-02-05 23:01:00,45.6,44.8,30.05,West,281,0.0,0.0,97,0.00,,,0.59,Wunderground v.1.15,2013-02-06 07:01:00,
2013-02-05 23:07:00,45.5,44.7,30.05,West,281,0.0,0.0,97,0.00,,,0.59,Wunderground v.1.15,2013-02-06 07:07:00,
2013-02-05 23:12:00,45.4,44.6,30.05,West,281,0.0,0.0,97,0.00,,,0.59,Wunderground v.1.15,2013-02-06 07:12:00,
2013-02-05 23:18:00,45.2,44.4,30.05,West,281,0.0,0.0,97,0.00,,,0.59,Wunderground v.1.15,2013-02-06 07:18:00,
2013-02-05 23:24:00,45.1,44.3,30.05,West,281,0.0,1.0,97,0.00,,,0.59,Wunderground v.1.15,2013-02-06 07:24:00,
2013-02-05 23:29:00,45.1,44.3,30.05,West,281,0.0,1.0,97,0.00,,,0.59,Wunderground v.1.15,2013-02-06 07:29:00,
2013-02-05 23:35:00,44.9,44.1,30.05,West,281,0.0,0.0,97,0.00,,,0.59,Wunderground v.1.15,2013-02-06 07:35:00,
2013-02-05 23:40:00,44.8,44.0,30.06,West,281,0.0,0.0,97,0.00,,,0.59,Wunderground v.1.15,2013-02-06 07:40:00,
2013-02-05 23:46:00,44.6,43.8,30.06,West,281,0.0,0.0,97,0.00,,,0.59,Wunderground v.1.15,2013-02-06 07:46:00,
2013-02-05 23:52:00,44.5,43.7,30.06,West,281,0.0,0.0,97,0.00,,,0.59,Wunderground v.1.15,2013-02-06 07:52:00,
2013-02-05 23:58:00,44.4,43.6,30.06,West,281,0.0,0.0,97,0.00,,,0.59,Wunderground v.1.15,2013-02-06 07:58:00,